Change the Weather History Date:

Sunday, November 18, 2012

  Actual Average Record
Temperature  
Mean Temperature 27 °F 32 °F  
Max Temperature 43 °F 41 °F 59 °F (2001)
Min Temperature 10 °F 22 °F 1 °F (2014)
Degree Days  
Heating Degree Days 38 33  
Month to date heating degree days 617 544  
Since 1 July heating degree days 1710 1836  
Moisture  
Dew Point 18 °F    
Average Humidity 75    
Maximum Humidity 100    
Minimum Humidity 49    
Precipitation  
Precipitation 0.00 in 0.11 in 0.66 in (1987)
Month to date precipitation 0.34 2.07  
Year to date precipitation 30.60 33.95  
Sea Level Pressure  
Sea Level Pressure 30.65 in    
Wind  
Wind Speed 1 mph (NNW)    
Max Wind Speed 7 mph    
Max Gust Speed 9 mph    
Visibility 8 miles    
Events Fog    
T = Trace of Precipitation, MM = Missing Value Source: NWS Daily Summary

Daily Weather History Graph

Daily Weather History Graph

Search for Another Location

Airport or City:

Trip Planner

Search our weather history database for the weather conditions in past years. The results will help you decide how hot, cold, wet, or windy it might be!

Date:

Astronomy

Nov. 18, 2012 Rise Set
Actual Time 6:57 AM EST 4:26 PM EST
Civil Twilight 6:25 AM EST 4:58 PM EST
Nautical Twilight 5:50 AM EST 5:33 PM EST
Astronomical Twilight 5:15 AM EST 6:07 PM EST
Moon 11:20 AM EST (11/18) 9:46 PM EST (11/18)
Length of Visible Light 10h 32m
Length of Day
9h 29m
Waxing Crescent, 30% of the Moon is Illuminated
Nov 18
Waxing Crescent
Nov 20
First Quarter
Nov 28
Full
Dec 6
Last Quarter
Dec 13
New

Hourly Weather History & Observations

Time (EST) Temp. Windchill Dew Point Humidity Pressure Visibility Wind Dir Wind Speed Gust Speed Precip Events Conditions
12:51 AM 15.1 °F - 12.0 °F 88% 30.69 in 10.0 mi Calm Calm - N/A   Clear
1:51 AM 12.9 °F - 10.9 °F 92% 30.69 in 10.0 mi Calm Calm - N/A   Clear
2:51 AM 12.9 °F - 10.0 °F 88% 30.69 in 10.0 mi Calm Calm - N/A   Clear
3:51 AM 12.0 °F - 10.0 °F 92% 30.69 in 10.0 mi Calm Calm - N/A   Clear
4:51 AM 10.9 °F - 8.1 °F 88% 30.69 in 10.0 mi Calm Calm - N/A   Clear
5:51 AM 10.9 °F - 8.1 °F 88% 30.70 in 10.0 mi Calm Calm - N/A   Clear
6:51 AM 10.9 °F - 7.0 °F 84% 30.72 in 10.0 mi Calm Calm - N/A   Clear
7:51 AM 15.1 °F - 12.0 °F 88% 30.73 in 10.0 mi Calm Calm - N/A   Clear
7:59 AM 15.8 °F - 12.2 °F 86% 30.63 in 10.0 mi Calm Calm - N/A   Scattered Clouds
8:07 AM 15.8 °F - 12.2 °F 86% 30.63 in 10.0 mi Calm Calm - N/A   Mostly Cloudy
8:13 AM 15.8 °F - 12.2 °F 86% 30.63 in 1.2 mi Calm Calm - N/A   Mostly Cloudy
8:17 AM 17.6 °F - 15.8 °F 93% 30.63 in 0.2 mi Calm Calm - N/A Fog Light Freezing Fog
8:51 AM 21.9 °F - 21.9 °F 100% 30.71 in 0.2 mi Calm Calm - N/A Fog Light Freezing Fog
9:34 AM 26.6 °F - 26.6 °F 100% 30.62 in 1.0 mi Calm Calm - N/A   Mist
9:38 AM 28.4 °F - 26.6 °F 93% 30.62 in 4.0 mi Calm Calm - N/A   Mostly Cloudy
9:47 AM 28.4 °F - 26.6 °F 93% 30.62 in 7.0 mi Calm Calm - N/A   Scattered Clouds
9:51 AM 28.9 °F - 27.0 °F 92% 30.70 in 7.0 mi Calm Calm - N/A   Partly Cloudy
10:51 AM 33.1 °F 30.0 °F 28.9 °F 85% 30.69 in 10.0 mi West 3.5 mph - N/A   Clear
2:51 PM 42.1 °F - 24.1 °F 49% 30.62 in 10.0 mi Calm Calm - N/A   Clear
3:51 PM 39.9 °F - 24.1 °F 53% 30.62 in 10.0 mi Calm Calm - N/A   Clear
4:51 PM 28.9 °F - 23.0 °F 78% 30.64 in 10.0 mi Calm Calm - N/A   Clear
5:51 PM 28.9 °F - 23.0 °F 78% 30.64 in 10.0 mi Calm Calm - N/A   Clear
6:51 PM 28.9 °F 22.8 °F 25.0 °F 85% 30.64 in 10.0 mi NNE 5.8 mph - N/A   Clear
7:51 PM 28.0 °F - 25.0 °F 88% 30.62 in 9.0 mi Calm Calm - N/A   Clear
8:51 PM 21.9 °F - 21.0 °F 96% 30.61 in 9.0 mi Calm Calm - N/A   Clear
9:51 PM 19.9 °F - 19.0 °F 96% 30.61 in 5.0 mi Calm Calm - N/A   Clear
10:51 PM 18.0 °F - 16.0 °F 92% 30.60 in 7.0 mi Calm Calm - N/A   Clear
11:51 PM 17.1 °F - 15.1 °F 92% 30.59 in 10.0 mi Calm Calm - N/A   Clear